Regional Weather Roundup
Issued by NWS

Home | Current Version | Previous Version | Graphics & Text | Print | Product List | Glossary On
Versions: 1 2 3 4 5 6 7 8 9 10 11 12 13 14 15 16 17 18 19 20 21 22 23 24 25 26 27 28 29 30 31 32 33 34 35 36 37 38 39 40 41 42 43 44 45 46 47 48 49 50
000
ASUS43 KDTX 230001
RWRMI
MICHIGAN HOURLY REGIONAL WEATHER ROUNDUP
NATIONAL WEATHER SERVICE DETROIT/PONTIAC MI
800 PM EDT FRI AUG 22 2014

NOTE: "FAIR" INDICATES FEW OR NO CLOUDS BELOW 12,000 FEET WITH NO
SIGNIFICANT WEATHER AND/OR OBSTRUCTION TO VISIBILITY.

MIZ047>049-052>055-059>063-066>070-074>076-081>083-230100-
SOUTHEAST LOWER MICHIGAN

CITY           SKY/WX    TMP DP  RH WIND       PRES   REMARKS
ADRIAN         PTCLDY    79  71  76 CALM      29.97S
6HR MIN TEMP:  79; 6HR MAX TEMP:  83;

ALMA           CLOUDY    74  66  75 NE8       30.00R
ANN ARBOR      CLEAR     79  68  69 E3        29.97R
BAD AXE        CLEAR     68  64  87 NE6       30.03S
6HR MIN TEMP:  68; 6HR MAX TEMP:  78;

CARO           MOCLDY    73  67  81 NE6       30.00S
DETROIT CITY   MOCLDY    77  65  66 E8        29.98R
6HR MIN TEMP:  77; 6HR MAX TEMP:  85;

DETROIT        MOCLDY    79  67  66 E3        29.97S
FLINT          CLOUDY    79  66  64 E10       29.99R
6HR MIN TEMP:  79; 6HR MAX TEMP:  84;

GROSSE ILE     PTCLDY    75  72  88 CALM      29.96S
HILLSDALE      CLEAR     79  74  84 CALM      29.99R
6HR MIN TEMP:  78; 6HR MAX TEMP:  81;

HOWELL         MOCLDY    76  69  78 NE6       29.99R

CITY           SKY/WX    TMP DP  RH WIND       PRES   REMARKS
JACKSON        PTCLDY    78  71  79 CALM      29.97F
6HR MIN TEMP:  78; 6HR MAX TEMP:  82;

LAMBERTVILLE   PTCLDY    79  70  73 CALM      29.97S
LANSING        CLOUDY    77  70  79 NE9       29.98S
6HR MIN TEMP:  77; 6HR MAX TEMP:  82;

LAPEER         CLOUDY    73  66  79 E6        30.00S HAZE
MASON          MOCLDY    76  70  82 NE3       29.98S
MONROE         PTCLDY    79  70  73 E3        29.95S
MT. CLEMENS    MOCLDY    73  62  67 N8        29.98R
6HR MIN TEMP:  73; 6HR MAX TEMP:  81;

PONTIAC        MOCLDY    76  67  73 E9        29.98S
6HR MIN TEMP:  76; 6HR MAX TEMP:  83;

PORT HOPE        N/A     63  62  97 CALM      30.03R
6HR MIN TEMP:  63; 6HR MAX TEMP:  69;

PORT HURON     CLOUDY    68  63  83 CALM      30.01R
TRI CITIES     MOCLDY    73  63  70 NE6       30.01S
6HR MIN TEMP:  73; 6HR MAX TEMP:  79;

TROY           CLOUDY    76  65  69 NE12      30.01R
SAGINAW HB     MOCLDY    70  64  83 NE3       30.00S
$$
MIZ043>046-050>051-056>058-064>065-071>073-077>080-230100-
SOUTHWEST LOWER MICHIGAN

CITY           SKY/WX    TMP DP  RH WIND       PRES   REMARKS
BATTLE CREEK   MOCLDY    79  71  76 N3        29.98S
6HR MIN TEMP:  78; 6HR MAX TEMP:  81;

BENTON HARBOR  PTCLDY    76  72  87 NW5       29.96R
6HR MIN TEMP:  76; 6HR MAX TEMP:  84;

BIG RAPIDS     CLEAR     74  71  89 E5        30.00R
6HR MIN TEMP:  74; 6HR MAX TEMP:  79;

COLDWATER      MOCLDY    79  73  80 NE5       29.98R
6HR MIN TEMP:  79; 6HR MAX TEMP:  83;

FREMONT        CLOUDY    78  70  78 E6        29.98R
HOLLAND        CLEAR     81  73  76 E5        29.97R
6HR MIN TEMP:  77; 6HR MAX TEMP:  83;

GRAND RAPIDS   MOCLDY    79  75  87 E5        29.98R
6HR MIN TEMP:  78; 6HR MAX TEMP:  81;

IONIA          CLOUDY    76  70  82 NE6       29.98S
KALAMAZOO      CLOUDY    80  71  74 CALM      29.97R
6HR MIN TEMP:  80; 6HR MAX TEMP:  84;

LUDINGTON      PTCLDY    77  72  84 E3        29.98R
6HR MIN TEMP:  77; 6HR MAX TEMP:  81;

MARSHALL       CLEAR     77  72  84 CALM      29.97S
MOUNT PLEASANT CLOUDY    73  66  77 E7        30.00S
6HR MIN TEMP:  73; 6HR MAX TEMP:  81;

MUSKEGON       MOCLDY    79  71  76 NW3       29.97R
6HR MIN TEMP:  78; 6HR MAX TEMP:  83;

SOUTH HAVEN    MOCLDY    80  75  84 NW3       29.96R
$$
MIZ016>042-230100-
NORTHERN LOWER MICHIGAN

CITY           SKY/WX    TMP DP  RH WIND       PRES   REMARKS
ALPENA         CLEAR     68  64  87 SE5       30.05R
6HR MIN TEMP:  68; 6HR MAX TEMP:  79;

BEAVER ISLAND  CLOUDY    71  65  83 E5        30.02S
BELLAIRE       CLOUDY    78  67  68 E3        29.99S
6HR MIN TEMP:  78; 6HR MAX TEMP:  83;

CADILLAC       CLOUDY    74  68  82 E5        30.02R
CHARLEVOIX     CLEAR     76  67  72 E8        30.03F
6HR MIN TEMP:  74; 6HR MAX TEMP:  80;

FRANKFORT      CLEAR     78  68  73 CALM      29.98S
GAYLORD        CLOUDY    74  64  71 E5        30.04S
6HR MIN TEMP:  74; 6HR MAX TEMP:  77;

GRAYLING       CLOUDY    74  67  77 E6        30.04S
6HR MIN TEMP:  72; 6HR MAX TEMP:  81;

HARBOR SPRINGS MOCLDY    74  65  74 NE7       30.02S
HOUGHTON LAKE  CLOUDY    73  67  81 E5        30.03R
6HR MIN TEMP:  73; 6HR MAX TEMP:  80;

MANISTEE       PTCLDY    79  68  69 SE6       29.99R
OSCODA         CLOUDY    65  64  94 E3        30.03R
PELLSTON       CLOUDY    73  65  75 E7        30.03R
6HR MIN TEMP:  72; 6HR MAX TEMP:  78;

ROGERS CITY    PTCLDY    68  65  91 NE5       30.05R
TRAVERSE CITY  CLOUDY    75  67  76 CALM      29.99R
6HR MIN TEMP:  75; 6HR MAX TEMP:  82;

$$
MIZ007>008-015-230100-
EASTERN UPPER MICHIGAN

CITY           SKY/WX    TMP DP  RH WIND       PRES   REMARKS
KINROSS        MOCLDY    72  64  78 S3        30.04R
6HR MIN TEMP:  72; 6HR MAX TEMP:  79;

MACKINAC ISLAN CLOUDY    68  64  87 SE3       30.03R
6HR MIN TEMP:  67; 6HR MAX TEMP:  71;

NEWBERRY       CLOUDY    71  65  80 CALM      30.03S
S. S. MARIE    PTCLDY    74  65  73 SE6       30.02R
6HR MIN TEMP:  74; 6HR MAX TEMP:  79;

$$
MIZ004>006-011>014-085-230100-
CENTRAL UPPER MICHIGAN

CITY           SKY/WX    TMP DP  RH WIND       PRES   REMARKS
MANISTIQUE     MOCLDY    70  64  83 E7        30.01S
ESCANABA       CLOUDY    70  64  83 SE7       30.00S
6HR MIN TEMP:  70; 6HR MAX TEMP:  73;

MENOMINEE      MOCLDY    72  66  83 NE9       29.98R
6HR MIN TEMP:  72; 6HR MAX TEMP:  73;

SAWYER-GWINN   LGT RAIN  68  66  94 NE5       30.02R
$$
MIZ001>003-009>011-084-230100-
WESTERN UPPER MICHIGAN

CITY           SKY/WX    TMP DP  RH WIND       PRES   REMARKS
IRON MOUNTAIN  CLOUDY    74  69  85 SE6       29.99R
6HR MIN TEMP:  69; 6HR MAX TEMP:  76;

HOUGHTON       CLOUDY    64  60  87 E8        30.01S
6HR MIN TEMP:  64; 6HR MAX TEMP:  69;

COPPER HARBOR    N/A     55  51  86 E3        30.02R
6HR MIN TEMP:  55; 6HR MAX TEMP:  69;

IRONWOOD       CLOUDY    63  63 100 W6        30.00S
6HR MIN TEMP:  63; 6HR MAX TEMP:  72;

$$

ABBREVIATIONS USED IN REMARKS
   TC - TEMPERATURE IN CELSIUS
  WCI - WIND CHILL INDEX
   HX - HEAT INDEX
  VSB - VISIBILITY




USA.gov is the U.S. government's official web portal to all federal, state and local government web resources and services.